This is the latest recevied weather packets stored in our database for station/object AB1AU. If no packets are shown the sender has not sent any weather packets the latest 10 day(s).
| Time | Temp. | Humidity | Pressure | Rain* | Wind** | Luminosity | Snow |
|---|---|---|---|---|---|---|---|
| 1787773084 | 28.33° C | 43% | 1017 hPa | 0 mm | - | 103 W/m² | - |
| 1787772779 | 28.33° C | 42% | 1016.8 hPa | 0 mm | - | 70 W/m² | - |
| 1787772478 | 28.33° C | 43% | 1017.1 hPa | 0 mm | - | 107 W/m² | - |
| 1787772172 | 28.33° C | 42% | 1017.1 hPa | 0 mm | - | 71 W/m² | - |
| 1787771871 | 27.78° C | 44% | 1017.1 hPa | 0 mm | - | 142 W/m² | - |
| 1787771570 | 27.78° C | 43% | 1017.1 hPa | 0 mm | - | 57 W/m² | - |
| 1787771264 | 27.78° C | 43% | 1017.2 hPa | 0 mm | - | 58 W/m² | - |
| 1787770960 | 27.78° C | 43% | 1017 hPa | 0 mm | - | 52 W/m² | - |
| 1787770659 | 27.78° C | 45% | 1017 hPa | 0 mm | - | 41 W/m² | - |
| 1787770353 | 27.22° C | 45% | 1017.1 hPa | 0 mm | - | 52 W/m² | - |
| 1787770052 | 27.22° C | 46% | 1017.1 hPa | 0 mm | - | 32 W/m² | - |
| 1787769747 | 27.22° C | 45% | 1017.1 hPa | 0 mm | - | 39 W/m² | - |
| 1787769445 | 27.22° C | 45% | 1017.3 hPa | 0 mm | - | 31 W/m² | - |
| 1787769141 | 27.22° C | 46% | 1017.2 hPa | 0 mm | - | 47 W/m² | - |
| 1787768835 | 27.22° C | 45% | 1017.2 hPa | 0 mm | - | 48 W/m² | - |
| 1787768532 | 27.78° C | 44% | 1017.2 hPa | 0 mm | - | 42 W/m² | - |
| 1787768227 | 27.22° C | 45% | 1017.2 hPa | 0 mm | - | 39 W/m² | - |
| 1787767923 | 27.22° C | 45% | 1017.2 hPa | 0 mm | - | 122 W/m² | - |
| 1787767618 | 27.22° C | 45% | 1017.2 hPa | 0 mm | - | 45 W/m² | - |
| 1787767317 | 27.22° C | 47% | 1017.3 hPa | 0 mm | - | 51 W/m² | - |
| 1787767017 | 27.78° C | 46% | 1017.1 hPa | 0 mm | - | 55 W/m² | - |
| 1787766716 | 27.22° C | 49% | 1017.1 hPa | 0 mm | - | 39 W/m² | - |
* Rain latest hour (hover to see other rain measurements)
** Current wind speed in m/s (hover to see current wind gust speed)